sat.trackr.live / text

‹ back to catalog

STARLINK-11365 [DTC]

NORAD 62886 · 2025-024H

PAYLOAD ACTIVE UNKNOWN

§ Identity

Operator
Country
US
Launch date
2025-02-04
Launch site
AFETR
Launch vehicle
Mass (kg)
RCS (m²)

Purposes: comms

External: N2YO · Heavens-Above · Gunter

§ Orbital elements

Epoch: 2026-05-25T04:52:59.102112Z

Period
91.66 min
Inclination
43.0001°
Eccentricity
0.0002205
Mean motion
15.71094624 rev/d
Perigee alt
354.3 km
Apogee alt
357.3 km
Semi-major
6,733.9 km
B*
2.0162e-3
RAAN
79.9498°
Arg perigee
278.7611°
Mean anomaly
81.3007°
Rev number
7,550

§ Raw data

STARLINK-11365 [DTC]1 62886U 25024H   26145.20346183  .00269703  00000+0  20162-2 0  99972 62886  43.0001  79.9498 0002205 278.7611  81.3007 15.71094624 75502

JSON: /api/v1/satellites/62886 · /tle

For live sub-satellite position, see the globe view (requires WebGL).

§ Visibility from observer

Set your observer location to see the next 7 days of passes ≥ 10°. The values pass through the URL so the page stays shareable.

No JS? Fill the form by hand. The geolocation button needs JavaScript.